IRIS                    
1 39197U 13033A   19259.80718978  .00000034  00000-0  11820-4 0  9996
2 39197  97.9524  80.0638 0028622  40.2442 320.0881 14.78655594335511
PEGASUS R/B             
1 39198U 13033B   19260.07222462  .00000033  00000-0  11368-4 0  9992
2 39198  97.9343  83.8237 0023517  24.8713 335.3627 14.79657460335796